Location: Caltech
(34.1382°N, 118.1253°W)
Time: 23:13:25
(UTC-07:00)

PCSat - Visible Passes

Search period start: 21 September 2014 00:00
Search period end: 01 October 2014 00:00
Orbit: 786 x 796 km, 67.1° (Epoch: 21 September)

Date Brightness Start Highest point End Pass type
(mag) Time Alt. Az. Time Alt. Az. Time Alt. Az.
21 Sep 11.0 20:17:28 10° N 20:21:32 21° NE 20:21:32 21° NE visible
21 Sep 11.6 21:59:59 10° NW 22:02:17 25° NW 22:02:17 25° NW visible
22 Sep 11.2 19:47:33 10° NNE 19:50:46 16° NE 19:52:05 15° ENE visible
22 Sep 10.7 21:29:17 10° NNW 21:32:51 41° NW 21:32:51 41° NW visible
23 Sep 11.5 19:18:12 10° NNE 19:19:56 11° NE 19:21:40 10° ENE visible
23 Sep 9.7 20:58:41 10° NNW 21:03:29 70° NNW 21:03:29 70° NNW visible
24 Sep 9.5 20:28:11 10° NNW 20:33:34 60° ENE 20:34:14 56° E visible
24 Sep 12.2 22:13:32 10° WNW 22:15:01 13° W 22:15:01 13° W visible
25 Sep 10.0 19:57:47 10° NNW 20:02:57 43° ENE 20:05:06 29° ESE visible
25 Sep 11.6 21:42:01 10° WNW 21:45:53 21° WSW 21:45:53 21° WSW visible
26 Sep 10.4 19:27:29 10° N 19:32:17 31° ENE 19:36:07 14° ESE visible
26 Sep 11.1 21:10:55 10° NW 21:15:35 30° WSW 21:16:55 27° SW visible
27 Sep 10.6 20:40:01 10° NW 20:45:07 43° WSW 20:48:08 22° SSW visible
28 Sep 10.0 20:09:17 10° NNW 20:14:38 62° WSW 20:19:36 12° SSE visible
29 Sep 9.6 19:38:39 10° NNW 19:44:06 87° WSW 19:49:30 10° SSE visible
30 Sep 9.6 19:08:08 10° NNW 19:13:32 67° ENE 19:18:54 10° SE visible
30 Sep 12.4 20:53:56 10° WNW 20:56:17 13° WSW 20:58:38 10° SW visible
